www.pogodaiklimat.ru
ПОГОДА на Базе ВВС Касл
Время
и дата
18:55 13.07
13:55 14.07
14:55 14.07
15:55 14.07
16:55 14.07
17:55 14.07
18:55 14.07
05:55 15.07
06:55 15.07
07:55 15.07
08:55 15.07
09:55 15.07
10:55 15.07
11:55 15.07
12:55 15.07
13:54 15.07
05:54 16.07
06:54 16.07
07:54 16.07
08:54 16.07
09:54 16.07
10:54 16.07
11:54 16.07
12:54 16.07
05:53 17.07
07:57 17.07
08:53 17.07
09:56 17.07
10:56 17.07
11:53 17.07
05:53 18.07
06:56 18.07
07:55 18.07
08:57 18.07
09:56 18.07
10:53 18.07
11:53 18.07
12:53 18.07
05:53 19.07
06:56 19.07
08:00 19.07
08:53 19.07
09:56 19.07
10:53 19.07
11:53 19.07
12:53 19.07
13:53 20.07
14:53 20.07
Ветер
(напр.,м/с)
Видим. Явления Облачность Т
(С)
Тd
(С)
f
(%)
Тe
(С)
Тes
(С)
Комфортность P
(гПа)
Po
(гПа)
Тmin
(С)
Tmax
(С)
R
(мм)
R24
(мм)
S
(см)
СЗ 7 16 км ясно +34.0 +16.0 34 +36 +37 душно 1002.9
СЗ 5 16 км ясно +37.0 +14.0 25 +37 +48 очень
жарко
1005.9
С 5 16 км ясно +38.0 +13.0 23 +38 +47 очень
жарко
1005.3
СЗ 7 16 км ясно +38.0 +16.0 27 +40 +43 очень
душно
1004.6
С 8 16 км ясно +37.0 +16.0 29 +39 +40 очень
душно
1004.2
СЗ 7 16 км ясно +36.0 +16.0 31 +38 +39 очень
душно
1004.2
СЗ 5 16 км ясно +33.0 +15.0 34 +35 +36 душно 1004.6
СЗ 5 16 км ясно +22.0 +11.0 50 +24 +24 комфорт 1008.3
СЗ 4 16 км ясно +24.0 +11.0 44 +25 +26 комфорт 1008.6
СЗ 5 16 км ясно +27.0 +9.0 32 +27 +29 жарко 1008.6
СЗ 6 16 км ясно +28.0 +10.0 32 +28 +31 жарко 1008.6
СЗ 5 16 км ясно +29.0 +10.0 31 +29 +36 жарко 1008.3
СЗ 4 16 км ясно +31.0 +11.0 29 +31 +42 жарко 1007.9
СЗ 5 16 км ясно +33.0 +12.0 28 +33 +44 жарко 1007.3
СЗ 4 16 км ясно +35.0 +13.0 27 +35 +49 очень
жарко
1006.6
С 5 16 км ясно +37.0 +15.0 27 +38 +49 душно 1006.3
СЗ 4 16 км ясно +18.0 +12.0 68 +18 +18 1006.9
СЗ 6 16 км ясно +20.0 +12.0 60 +21 +22 комфорт 1007.6
С 6 16 км ясно +22.0 +11.0 50 +24 +25 комфорт 1007.6
С 5 16 км ясно +24.0 +12.0 47 +26 +30 жарко 1007.6
СЗ 3 16 км ясно +26.0 +13.0 45 +28 +38 жарко 1007.6
СЗ 3 16 км ясно +29.0 +13.0 37 +30 +44 жарко 1007.3
СЗ 5 16 км ясно +31.0 +13.0 33 +32 +42 жарко 1006.9
С 4 16 км ясно +32.0 +13.0 31 +33 +47 жарко 1006.3
СЗ 3 16 км ясно +16.0 +14.0 88 +16 +16 1009.0
СЗ 6 16 км ясно +20.0 +12.0 60 +21 +23 комфорт 1008.3
СЗ 3 16 км ясно +23.0 +12.0 50 +26 +32 жарко 1009.0
С 4 16 км ясно +27.0 +12.0 39 +28 +36 жарко 1009.0
С 6 16 км ясно +30.0 +11.0 31 +30 +37 жарко 1008.3
СЗ 4 16 км ясно +32.0 +10.0 26 +32 +45 жарко 1007.9
СЗ 3 16 км ясно +19.0 +12.0 64 +20 +20 1006.6
С 4 16 км ясно +21.0 +12.0 56 +23 +24 комфорт 1006.9
СЗ 3 16 км 5/0 3000 m
[Ac]
+24.0 +13.0 50 +26 +28 жарко 1007.3
СЗ 5 16 км ясно +27.0 +14.0 45 +29 +33 жарко 1007.3
СЗ 4 16 км 5/0 3600 m
[Ac]
+30.0 +12.0 33 +31 +36 жарко 1007.3
С 6 16 км 5/0 3600 m
[Ac]
+33.0 +13.0 30 +34 +38 очень
жарко
1006.9
С 4 16 км 5/0 3600 m
[Ac]
+35.0 +13.0 27 +35 +44 очень
жарко
1006.9
СЗ 4 16 км ясно +36.0 +12.0 24 +36 +50 очень
жарко
1006.6
С 4 16 км ясно +21.0 +11.0 53 +23 +23 комфорт 1006.9
С 4 16 км ясно +24.0 +12.0 47 +26 +26 жарко 1007.6
СЗ 5 16 км ясно +27.0 +12.0 39 +28 +32 жарко 1007.6
С 4 16 км ясно +29.0 +13.0 37 +30 +35 жарко 1007.6
СЗ 3 16 км ясно +32.0 +13.0 31 +33 +43 жарко 1007.3
СЗ 4 16 км ясно +34.0 +13.0 28 +34 +45 очень
жарко
1006.9
С 4 16 км ясно +36.0 +14.0 27 +37 +50 душно 1006.3
СЗ 4 13 км мгла ясно +38.0 +14.0 24 +38 +52 опасность
солнечного
удара
1005.6
СЗ 4 16 км ясно +41.0 +12.0 18 +40 +53 опасность
солнечного
удара
1003.2
СЗ 5 16 км ясно +41.0 +12.0 18 +40 +49 очень
жарко
1002.2
Местоположение метеостанции Castle Air Force Base: широта 37.3667 долгота -120.5667 высота над уровнем моря 57 м.
В архиве по умолчанию представлена погода на Базе ВВС Касл за последние 1-2 суток. Обновление информации о фактической погоде в базе происходит ежечасно! Архивные данные за месяц целиком и за предыдущие месяцы Вы можете получить, выбрав интересующий диапазон дат из раскрывающегося списка и нажав кнопку "Ввод!".
Внимание! Архив погоды МЕТАР в базе сайта по станциям, не включенным в климатический монитор, хранится не более 60 дней. Нет смысла пытаться выбрать более раннюю дату.
*Определитесь, кто Вы:
Внимание! Время в таблицах - местное (без учета летнего времени). Для получения всемирного времени необходимо вычесть поправку, которая равна -8 ч.
Смотрите также архив погоды в соседних городах и на ближайших метеорологических станциях:
Партнеры нашего сайта:      
Пояснения к столбцам:
  • Ветер - указаны скорость ветра в м/с - средняя за 10 мин, порывы в срок и между сроками (в фигурных скобках) и направление, откуда дует ветер: С - северный,
  • СВ - северо-восточный, В - восточный, ЮВ - юго-восточный, Ю - южный, ЮЗ - юго-западный, З - западный, СЗ - северо-западный.
  • Видимость - горизонтальная дальность видимости в метрах или километрах. При видимости от 1 до 10 км при отсутствии осадков обычно наблюдается дымка, при ухудшении видимости до 1 км и менее - туман. В сухую погоду видимость может ухудшаться дымом, пылью или мглою.
  • Явления - указаны атмосферные явления, наблюдавшиеся в срок или в последний час перед сроком; фигурными скобками обозначены явления, наблюдавшиеся между сроками (за 1-3 часа до срока); квадратными скобками обозначены град или гололедные отложения с указанием их диаметра в мм.
  • Облачность - указаны через наклонную черту общая и нижняя облачность в баллах и высота нижней границы облаков в метрах; квадратными скобками обозначены формы облаков: Ci - перистые, Cs - перисто-слоистые, Cc - перисто-кучевые, Ac - высококучевые, As - высокослоистые, Sc - слоисто-кучевые, Ns - слоисто-дождевые, Cu - кучевые, Cb - кучево-дождевые. Подробнее классификацию облаков см. в Атласе облаков (PDF).
  • T - Температура воздуха - температура, измеренная на высоте 2 м над землей.
  • Td - Температура точки росы - температура, при понижении до которой содержащийся в воздухе водяной пар достигнет насыщения.
  • f - Относительная влажность воздуха - влажноcть воздуха, измеренная на высоте 2 м над землей.
  • Te - Эффективная температура - температура, которую ощущает одетый по сезону человек в тени. Характеристика душности погоды. При расчете учитывается влияние влажности воздуха и скорости ветра на теплоощущения человека.
  • Tes - Эффективная температура на солнце - температура, которую ощущает человек, с поправкой на солнечный нагрев. Характеристика знойности погоды. Зависит от высоты солнца над горизонтом, облачности и скорости ветра. Ночью, в пасмурную погоду, а также при ветре 12 м/с и более поправка равна нулю.
  • P - Атмосферное давление - приведенное к уровню моря атмосферное давление.
  • Po - Атмосферное давление - измеренное на уровне метеостанции атмосферное давление.
  • Tmin - Минимальная температура - минимум температуры воздуха на высоте 2 м над землей.
  • Tmax - Максимальная температура - максимум температуры воздуха на высоте 2 м над землей.
  • R - Количество осадков - Количество выпавших осадков за период времени, мм. При наведении курсора мыши на число - период времени, за который выпало указанное количество осадков.
  • R24 - Количество осадков - Количество выпавших осадков за 24 часа, мм.
  • S - Снежный покров - Высота снежного покрова, см. При наведении курсора мыши на число - состояние снежного покрова и степень покрытия местности в баллах.